Regional Weather Roundup
Issued by NWS

Home | Current Version | Previous Version | Graphics & Text | Print | Product List | Glossary Off
Versions: 1 2 3 4 5 6 7 8 9 10 11 12 13 14 15 16 17 18 19 20 21 22 23 24 25 26 27 28 29 30 31 32 33 34 35 36 37 38 39 40 41 42 43 44 45 46 47 48 49 50

000
ASUS43 KMKX 241911
RWRWI

WISCONSIN REGIONAL WEATHER ROUNDUP
NATIONAL WEATHER SERVICE MILWAUKEE/SULLIVAN WI
200 PM CDT FRI OCT 24 2014

NOTE: "FAIR" INDICATES FEW OR NO CLOUDS BELOW 12,000 FEET WITH NO
SIGNIFICANT WEATHER AND/OR OBSTRUCTIONS TO VISIBILITY.

WIZ001-002-006>008-014>016-023>028-242000-
NORTHWEST WISCONSIN

CITY           SKY/WX    TMP DP  RH WIND       PRES   REMARKS
SUPERIOR ARPT  SUNNY     70  53  54 SW9       29.76F
ASHLAND        SUNNY     68  47  46 S13G18    29.81F
HAYWARD        SUNNY     66  50  56 S15G23    29.83F
SIREN          CLOUDY    64  52  63 SW9       29.83S
CUMBERLAND     CLOUDY    59  48  67 S9        29.85F
RICE LAKE      CLOUDY    59  49  70 SE9       29.87F
CHETEK         CLOUDY    59  51  74 SE8       29.86F
LADYSMITH      MOSUNNY   60  51  69 S12       29.88F
EAU CLAIRE     CLOUDY    60  49  66 S10       29.86F
MENOMONIE      CLOUDY    60  51  70 SE6       29.86F
NEW RICHMOND   CLOUDY    59  53  80 S9        29.86S
OSCEOLA        CLOUDY    61  55  80 S9        29.86F
$$

WIZ003>005-009-010-017-018-242000-
NORTH CENTRAL WISCONSIN

CITY           SKY/WX    TMP DP  RH WIND       PRES   REMARKS
MANITOWISH WTR SUNNY     58  49  72 S9        29.87F
ARBOR VITAE    SUNNY     58  50  72 S7        29.88F
WOODRUFF       SUNNY     58  50  72 S7        29.88F
RHINELANDER    SUNNY     57  47  69 VRB7      29.90F
EAGLE RIVER    SUNNY     59  45  60 SW8       29.88F
LAND O LAKES   SUNNY     61  45  54 SW8       29.88F
PHILLIPS       SUNNY     62  47  59 S10       29.87F
TOMAHAWK       SUNNY     56  47  74 S7        29.90F
MEDFORD        MOSUNNY   52  49  89 S8        29.90F
MERRILL        CLOUDY    52  48  87 S6        29.92F
$$

WIZ029-030-035-036-043>047-242000-
CENTRAL WISCONSIN

CITY           SKY/WX    TMP DP  RH WIND       PRES   REMARKS
WAUSAU         PTSUNNY   51  48  89 S7        29.92F
MOSINEE        CLOUDY    50  50 100 S8        29.94F FOG
MARSHFIELD     MOSUNNY   55  49  80 SE6       29.92F
STEVENS POINT  PTSUNNY   50  47  89 S6        29.94F
WAUPACA        CLOUDY    54  51  89 S7        29.95F
WAUTOMA        CLOUDY    54  50  86 SE5       29.96F
WISC RAPIDS      N/A     56  50  80 S5        29.94F
CAMP DOUGLAS   SUNNY     62  54  75 S9        29.92F
$$

WIZ011>013-019>022-031-037>040-048>050-242000-
NORTHEAST WISCONSIN

CITY           SKY/WX    TMP DP  RH WIND       PRES   REMARKS
ANTIGO         MOSUNNY   52  50  93 SW7       29.92F
SHAWANO        CLOUDY    52  49  89 SW6       29.95F
OCONTO         CLOUDY    53  49  86 SW7       29.93F
STURGEON BAY   PTSUNNY   54  48  82 SW5       29.94F
GREEN BAY      CLOUDY    52  49  89 SW5       29.94F FOG
MANITOWOC      MOSUNNY   59  51  75 S7        29.95F
APPLETON         N/A     50  48  93 SW8       29.96F FOG
CLINTONVILLE   CLOUDY    50  48  93 SW10      29.94F
OSHKOSH        CLOUDY    52  50  93 SW8       29.96F
$$

WIZ032>034-041-042-053>061-242000-
SOUTHWEST WISCONSIN

CITY           SKY/WX    TMP DP  RH WIND       PRES   REMARKS
LA CROSSE      CLOUDY    63  52  67 S10       29.88F
SPARTA         PTSUNNY   63  47  57 S10       29.90F
VIROQUA        PTSUNNY   63  53  69 S12G20    29.91F
BOSCOBEL       MOSUNNY   65  53  65 S9        29.94F
PRAIRIE DU CHI MOSUNNY   64  52  63 SE13G21   29.91F
PLATTEVILLE    CLOUDY    56  55  99 SE9       29.98F
$$

WIZ056-057-062-063-064-067-068-242000-
SOUTH CENTRAL WISCONSIN

CITY           SKY/WX    TMP DP  RH WIND       PRES   REMARKS
REEDSBURG      PTSUNNY   56  51  83 S6        29.94F
BARABOO/DELLS  MOSUNNY   58  49  69 S7        29.95F
LONE ROCK      MOSUNNY   64  52  64 S9        29.95F
MINERAL POINT  MOSUNNY   61  54  77 S8        29.97F
MADISON        PTSUNNY   56  50  80 S8        29.98F
MIDDLETON      CLOUDY    60  51  70 S8        29.97F
WATERTOWN      CLOUDY    53  52  96 SW8       29.98F
MONROE         CLOUDY    55  52  88 SW12      29.98F
JANESVILLE     CLOUDY    55  52  88 S7        30.00F FOG
$$

WIZ051-052-058>065-066-070>072-242000-
SOUTHEAST WISCONSIN

CITY           SKY/WX    TMP DP  RH WIND       PRES   REMARKS
MILWAUKEE      MOSUNNY   57  50  77 VRB6      29.99F
WAUKESHA       MOSUNNY   55  52  88 SW7       29.99F
MILWAUKEE/TIMM SUNNY     57  48  72 CALM      29.99F
RACINE         MOSUNNY   57  50  77 S8        30.00F
BURLINGTON     PTSUNNY   55  50  83 SW7       29.99F
KENOSHA        MOSUNNY   57  52  83 SW6       29.99F
FOND DU LAC    CLOUDY    52  49  89 SW10      29.97F
SHEBOYGAN      MOSUNNY   60  49  66 SW6       29.95F
WEST BEND      MOSUNNY   57  46  67 SW7       29.96F
JUNEAU         CLOUDY    52  50  92 S8        29.98F
$$

LSZ147-162-242000-
LAKE SUPERIOR

STATION/POSITION TIME  TEMP    WIND        PRES    WAVE
                       AIR SEA DIR/SP/G            HT/PER
                 (UTC) (F)     (DEG/KT/KT) (MB)    (FT/S)
W MID LAKE BUOY  1850   48 47  180/  6/  6 1009.2F
DEVILS ISLAND    1900   51     340/  3/  4 1008.8F
PORT WING        1800   54      20/  3/  3 1009.5
SAXON HARBOR     1800   68     220/ 13/ 19 1009.8F
$$

LMZ867-665-643>646-242000-
LAKE MICHIGAN

STATION/POSITION TIME  TEMP    WIND        PRES    WAVE
                       AIR SEA DIR/SP/G            HT/PER
                 (UTC) (F)     (DEG/KT/KT) (MB)    (FT/S)
CHAMBERS ISLAND  1800   48     190/  5/ 11 1014.9F
N MID LAKE BUOY  1850   50 51  220/ 12/ 16 1014.0F   1/ 5
NORTHPORT PIER   1800   52     220/  2/  6 1014.6F
SISTER BAY       1842          220/ 10/ 13   N/A
ALGOMA LAKESHORE 1641          240/  9/ 10   N/A
KEWAUNEE LAKESHO 1800   51     170/ 10/ 11 1014.1F
SHEBOYGAN LAKESH 1900   50 51  160/ 15/ 16 1014.6F
PORT WASHINGTON  1800   52     150/  5/  6 1016.3
ATWATER BUOY     1900   54     160/  8/ 10 1015.8F
MILWAUKEE LAKESH 1800   55     240/  6/  7   N/A
S MID LAKE BUOY  1850   52 54  230/  8/ 10 1016.3F   1
KENOSHA   LAKESH 1900   56     260/  5/  6 1015.6F
$$

TC  - TEMPERATURE IN CELSIUS
VSB - VISIBILITY IN STATUTE MILES
WCI - WIND CHILL INDEX
HX  - HEAT INDEX




USA.gov is the U.S. government's official web portal to all federal, state and local government web resources and services.